Time,TemperatureF,DewpointF,PressureIn,WindDirection,WindDirectionDegrees,WindSpeedMPH,WindSpeedGustMPH,Humidity,HourlyPrecipIn,Conditions,Clouds,dailyrainin,SoftwareType,DateUTC
2013-08-30 00:11:00,72.0,54.0,29.78,ESE,109,0.0,-999.0,53,-99.99,,,-99.99,,2013-08-30 07:11:00,
2013-08-30 00:21:00,72.0,53.0,29.78,ESE,109,0.0,-999.0,52,-99.99,,,-99.99,,2013-08-30 07:21:00,
2013-08-30 00:53:00,72.0,53.0,29.78,ESE,109,0.0,-999.0,52,-99.99,,,-99.99,,2013-08-30 07:53:00,
2013-08-30 01:11:00,72.0,53.0,29.78,ESE,109,0.0,-999.0,51,-99.99,,,-99.99,,2013-08-30 08:11:00,
2013-08-30 01:22:00,72.0,53.0,29.78,ESE,109,0.0,-999.0,52,-99.99,,,-99.99,,2013-08-30 08:22:00,
2013-08-30 01:42:00,72.0,53.0,29.78,ESE,109,0.0,-999.0,51,-99.99,,,-99.99,,2013-08-30 08:42:00,
2013-08-30 01:52:00,72.0,53.0,29.77,ESE,109,0.0,-999.0,51,-99.99,,,-99.99,,2013-08-30 08:52:00,
2013-08-30 02:12:00,72.0,52.0,29.77,ESE,109,0.0,-999.0,50,-99.99,,,-99.99,,2013-08-30 09:12:00,
2013-08-30 02:22:00,73.0,53.0,29.77,ESE,109,0.0,-999.0,49,-99.99,,,-99.99,,2013-08-30 09:22:00,
2013-08-30 02:44:00,73.0,53.0,29.76,ESE,109,0.0,-999.0,49,-99.99,,,-99.99,,2013-08-30 09:44:00,
2013-08-30 02:53:00,73.0,53.0,29.76,ESE,109,0.0,-999.0,49,-99.99,,,-99.99,,2013-08-30 09:53:00,
2013-08-30 03:12:00,73.0,53.0,29.76,ESE,109,0.0,-999.0,49,-99.99,,,-99.99,,2013-08-30 10:12:00,
2013-08-30 03:23:00,73.0,53.0,29.76,ESE,109,0.0,-999.0,49,-99.99,,,-99.99,,2013-08-30 10:23:00,
2013-08-30 03:43:00,73.0,52.0,29.76,ESE,109,0.0,-999.0,48,-99.99,,,-99.99,,2013-08-30 10:43:00,
2013-08-30 03:53:00,73.0,53.0,29.76,ESE,109,0.0,-999.0,49,-99.99,,,-99.99,,2013-08-30 10:53:00,
2013-08-30 04:12:00,73.0,53.0,29.76,ESE,109,0.0,-999.0,49,-99.99,,,-99.99,,2013-08-30 11:12:00,
2013-08-30 04:22:00,73.0,53.0,29.75,ESE,109,0.0,-999.0,49,-99.99,,,-99.99,,2013-08-30 11:22:00,
2013-08-30 04:52:00,73.0,53.0,29.75,ESE,109,0.0,-999.0,50,-99.99,,,-99.99,,2013-08-30 11:52:00,
2013-08-30 05:12:00,73.0,54.0,29.75,ESE,109,0.0,-999.0,51,-99.99,,,-99.99,,2013-08-30 12:12:00,
2013-08-30 05:21:00,73.0,54.0,29.75,ESE,109,0.0,-999.0,51,-99.99,,,-99.99,,2013-08-30 12:21:00,
2013-08-30 05:41:00,73.0,53.0,29.75,ESE,109,0.0,-999.0,50,-99.99,,,-99.99,,2013-08-30 12:41:00,
2013-08-30 05:52:00,73.0,54.0,29.76,ESE,109,0.0,-999.0,51,-99.99,,,-99.99,,2013-08-30 12:52:00,
2013-08-30 06:11:00,73.0,54.0,29.77,ESE,109,0.0,-999.0,52,-99.99,,,-99.99,,2013-08-30 13:11:00,
2013-08-30 06:21:00,73.0,54.0,29.78,ESE,109,0.0,-999.0,51,-99.99,,,-99.99,,2013-08-30 13:21:00,
2013-08-30 06:52:00,73.0,54.0,29.78,ESE,109,0.0,-999.0,51,-99.99,,,-99.99,,2013-08-30 13:52:00,
2013-08-30 07:21:00,74.0,54.0,29.79,ESE,109,0.0,-999.0,49,-99.99,,,-99.99,,2013-08-30 14:21:00,
2013-08-30 07:52:00,74.0,55.0,29.79,ESE,109,0.0,-999.0,51,-99.99,,,-99.99,,2013-08-30 14:52:00,
2013-08-30 08:11:00,74.0,55.0,29.80,ESE,109,0.0,-999.0,52,-99.99,,,-99.99,,2013-08-30 15:11:00,
2013-08-30 08:22:00,75.0,58.0,29.80,ESE,109,0.0,-999.0,55,-99.99,,,-99.99,,2013-08-30 15:22:00,
2013-08-30 08:43:00,76.0,57.0,29.80,ESE,109,0.0,-999.0,52,-99.99,,,-99.99,,2013-08-30 15:43:00,
2013-08-30 08:54:00,78.0,57.0,29.80,ESE,109,0.0,-999.0,48,-99.99,,,-99.99,,2013-08-30 15:54:00,
2013-08-30 09:13:00,80.0,57.0,29.80,ESE,109,0.0,-999.0,45,-99.99,,,-99.99,,2013-08-30 16:13:00,
2013-08-30 09:24:00,81.0,58.0,29.81,ESE,109,0.0,-999.0,45,-99.99,,,-99.99,,2013-08-30 16:24:00,
2013-08-30 09:42:00,83.0,58.0,29.80,ESE,109,0.0,-999.0,43,-99.99,,,-99.99,,2013-08-30 16:42:00,
2013-08-30 09:53:00,85.0,59.0,29.81,ESE,109,0.0,-999.0,41,-99.99,,,-99.99,,2013-08-30 16:53:00,
2013-08-30 10:13:00,87.0,60.0,29.81,ESE,104,0.0,-999.0,40,-99.99,,,-99.99,,2013-08-30 17:13:00,
2013-08-30 10:23:00,90.0,64.0,29.81,ENE,75,0.0,-999.0,42,-99.99,,,-99.99,,2013-08-30 17:23:00,
2013-08-30 10:52:00,94.0,66.0,29.80,ENE,61,0.0,-999.0,40,-99.99,,,-99.99,,2013-08-30 17:52:00,
2013-08-30 11:21:00,97.0,66.0,29.80,ENE,61,0.0,-999.0,37,-99.99,,,-99.99,,2013-08-30 18:21:00,
2013-08-30 11:52:00,99.0,69.0,29.80,NW,315,0.0,-999.0,38,-99.99,,,-99.99,,2013-08-30 18:52:00,
2013-08-30 12:12:00,100.0,68.0,29.79,ENE,66,0.0,-999.0,36,-99.99,,,-99.99,,2013-08-30 19:12:00,
2013-08-30 12:21:00,100.0,68.0,29.79,East,88,0.0,-999.0,36,-99.99,,,-99.99,,2013-08-30 19:21:00,
2013-08-30 12:53:00,100.0,69.0,29.78,East,82,0.0,-999.0,37,-99.99,,,-99.99,,2013-08-30 19:53:00,
2013-08-30 13:11:00,101.0,69.0,29.77,East,81,1.0,-999.0,36,-99.99,,,-99.99,,2013-08-30 20:11:00,
2013-08-30 13:22:00,101.0,68.0,29.76,East,92,1.0,-999.0,35,-99.99,,,-99.99,,2013-08-30 20:22:00,
2013-08-30 13:32:00,101.0,68.0,29.76,East,92,1.0,-999.0,35,-99.99,,,-99.99,,2013-08-30 20:32:00,
2013-08-30 13:52:00,99.0,67.0,29.76,East,95,2.0,-999.0,36,-99.99,,,-99.99,,2013-08-30 20:52:00,
2013-08-30 14:11:00,99.0,67.0,29.75,East,100,2.0,-999.0,36,-99.99,,,-99.99,,2013-08-30 21:11:00,
2013-08-30 14:21:00,99.0,70.0,29.75,ESE,113,2.0,-999.0,39,-99.99,,,-99.99,,2013-08-30 21:21:00,
2013-08-30 14:54:00,98.0,69.0,29.75,ESE,106,1.0,-999.0,39,-99.99,,,-99.99,,2013-08-30 21:54:00,
2013-08-30 15:13:00,98.0,70.0,29.75,SE,139,1.0,-999.0,40,-99.99,,,-99.99,,2013-08-30 22:13:00,
2013-08-30 15:24:00,96.0,69.0,29.74,ENE,63,2.0,-999.0,42,-99.99,,,-99.99,,2013-08-30 22:24:00,
2013-08-30 15:54:00,96.0,68.0,29.75,SE,126,1.0,-999.0,41,-99.99,,,-99.99,,2013-08-30 22:54:00,
2013-08-30 16:12:00,96.0,68.0,29.75,ESE,109,1.0,-999.0,41,-99.99,,,-99.99,,2013-08-30 23:12:00,
2013-08-30 16:22:00,96.0,68.0,29.75,ENE,63,1.0,-999.0,41,-99.99,,,-99.99,,2013-08-30 23:22:00,
2013-08-30 16:53:00,95.0,68.0,29.75,ESE,109,1.0,-999.0,42,-99.99,,,-99.99,,2013-08-30 23:53:00,
2013-08-30 17:11:00,94.0,69.0,29.75,SE,125,1.0,-999.0,44,-99.99,,,-99.99,,2013-08-31 00:11:00,
2013-08-30 17:21:00,94.0,68.0,29.75,ESE,122,1.0,-999.0,43,-99.99,,,-99.99,,2013-08-31 00:21:00,
2013-08-30 17:42:00,93.0,68.0,29.75,NE,51,0.0,-999.0,44,-99.99,,,-99.99,,2013-08-31 00:42:00,
2013-08-30 17:52:00,93.0,67.0,29.75,SE,135,1.0,-999.0,43,-99.99,,,-99.99,,2013-08-31 00:52:00,
2013-08-30 18:11:00,91.0,66.0,29.75,NE,40,1.0,-999.0,44,-99.99,,,-99.99,,2013-08-31 01:11:00,
2013-08-30 18:21:00,92.0,66.0,29.76,ESE,123,1.0,-999.0,43,-99.99,,,-99.99,,2013-08-31 01:21:00,
2013-08-30 18:52:00,91.0,64.0,29.76,SE,138,0.0,-999.0,41,-99.99,,,-99.99,,2013-08-31 01:52:00,
2013-08-30 19:11:00,91.0,65.0,29.76,East,100,0.0,-999.0,42,-99.99,,,-99.99,,2013-08-31 02:11:00,
2013-08-30 19:22:00,89.0,64.0,29.77,ESE,112,0.0,-999.0,44,-99.99,,,-99.99,,2013-08-31 02:22:00,
2013-08-30 19:42:00,88.0,65.0,29.77,SE,126,0.0,-999.0,47,-99.99,,,-99.99,,2013-08-31 02:42:00,
2013-08-30 19:52:00,87.0,65.0,29.77,SE,126,0.0,-999.0,48,-99.99,,,-99.99,,2013-08-31 02:52:00,
2013-08-30 20:12:00,87.0,65.0,29.78,SE,126,0.0,-999.0,48,-99.99,,,-99.99,,2013-08-31 03:12:00,
2013-08-30 20:22:00,86.0,62.0,29.78,SE,126,0.0,-999.0,45,-99.99,,,-99.99,,2013-08-31 03:22:00,
2013-08-30 20:54:00,85.0,61.0,29.78,SE,126,0.0,-999.0,45,-99.99,,,-99.99,,2013-08-31 03:54:00,
2013-08-30 21:13:00,85.0,62.0,29.79,SE,126,0.0,-999.0,46,-99.99,,,-99.99,,2013-08-31 04:13:00,
2013-08-30 21:24:00,84.0,62.0,29.79,SE,126,0.0,-999.0,48,-99.99,,,-99.99,,2013-08-31 04:24:00,
2013-08-30 21:54:00,83.0,64.0,29.80,SE,126,0.0,-999.0,52,-99.99,,,-99.99,,2013-08-31 04:54:00,
2013-08-30 22:13:00,82.0,63.0,29.80,SE,126,0.0,-999.0,53,-99.99,,,-99.99,,2013-08-31 05:13:00,
2013-08-30 22:23:00,82.0,64.0,29.80,SE,126,0.0,-999.0,54,-99.99,,,-99.99,,2013-08-31 05:23:00,
2013-08-30 22:42:00,81.0,63.0,29.80,SE,126,0.0,-999.0,55,-99.99,,,-99.99,,2013-08-31 05:42:00,
2013-08-30 22:52:00,81.0,63.0,29.80,SE,126,0.0,-999.0,55,-99.99,,,-99.99,,2013-08-31 05:52:00,
2013-08-30 23:12:00,80.0,63.0,29.80,SE,126,0.0,-999.0,56,-99.99,,,-99.99,,2013-08-31 06:12:00,
2013-08-30 23:22:00,80.0,63.0,29.80,SE,126,0.0,-999.0,57,-99.99,,,-99.99,,2013-08-31 06:22:00,
2013-08-30 23:52:00,79.0,62.0,29.80,SE,126,0.0,-999.0,57,-99.99,,,-99.99,,2013-08-31 06:52:00,